site,time,unit,value
Sherwood Park,10/11/2023 00:00:00,MW,5.2320207
Sherwood Park,10/11/2023 00:05:00,MW,5.2216173
Sherwood Park,10/11/2023 00:10:00,MW,5.2173087
Sherwood Park,10/11/2023 00:15:00,MW,5.1532932
Sherwood Park,10/11/2023 00:20:00,MW,5.1600612
Sherwood Park,10/11/2023 00:25:00,MW,5.1840625
Sherwood Park,10/11/2023 00:30:00,MW,5.082242
Sherwood Park,10/11/2023 00:35:00,MW,5.0448711
Sherwood Park,10/11/2023 00:40:00,MW,5.0124455
Sherwood Park,10/11/2023 00:45:00,MW,4.9066320999999995
Sherwood Park,10/11/2023 00:50:00,MW,4.975115199999999
Sherwood Park,10/11/2023 00:55:00,MW,5.1060579
Sherwood Park,10/11/2023 01:00:00,MW,5.1213379
Sherwood Park,10/11/2023 01:05:00,MW,5.0967085
Sherwood Park,10/11/2023 01:10:00,MW,4.8954176
Sherwood Park,10/11/2023 01:15:00,MW,4.729082099999999
Sherwood Park,10/11/2023 01:20:00,MW,4.917721
Sherwood Park,10/11/2023 01:25:00,MW,4.9300709000000005
Sherwood Park,10/11/2023 01:30:00,MW,4.9815064
Sherwood Park,10/11/2023 01:35:00,MW,4.9452552999999995
Sherwood Park,10/11/2023 01:40:00,MW,4.8908591
Sherwood Park,10/11/2023 01:45:00,MW,4.7951540999999995
Sherwood Park,10/11/2023 01:50:00,MW,4.7400541
Sherwood Park,10/11/2023 01:55:00,MW,4.5658322
Sherwood Park,10/11/2023 02:00:00,MW,4.6874754
Sherwood Park,10/11/2023 02:05:00,MW,4.7662353
Sherwood Park,10/11/2023 02:10:00,MW,4.8072193
Sherwood Park,10/11/2023 02:15:00,MW,4.7857224
Sherwood Park,10/11/2023 02:20:00,MW,4.8209292
Sherwood Park,10/11/2023 02:25:00,MW,4.8703465
Sherwood Park,10/11/2023 02:30:00,MW,4.7636256
Sherwood Park,10/11/2023 02:35:00,MW,4.642042
Sherwood Park,10/11/2023 02:40:00,MW,4.728721500000001
Sherwood Park,10/11/2023 02:45:00,MW,4.6489494
Sherwood Park,10/11/2023 02:50:00,MW,4.6282388999999995
Sherwood Park,10/11/2023 02:55:00,MW,4.817068600000001
Sherwood Park,10/11/2023 03:00:00,MW,4.8877728000000005
Sherwood Park,10/11/2023 03:05:00,MW,5.00054
Sherwood Park,10/11/2023 03:10:00,MW,4.7938766
Sherwood Park,10/11/2023 03:15:00,MW,4.6288202
Sherwood Park,10/11/2023 03:20:00,MW,4.6796837
Sherwood Park,10/11/2023 03:25:00,MW,4.7610142
Sherwood Park,10/11/2023 03:30:00,MW,4.804698
Sherwood Park,10/11/2023 03:35:00,MW,4.7906974
Sherwood Park,10/11/2023 03:40:00,MW,4.8963995
Sherwood Park,10/11/2023 03:45:00,MW,4.9884186
Sherwood Park,10/11/2023 03:50:00,MW,4.7639575
Sherwood Park,10/11/2023 03:55:00,MW,4.6072895
Sherwood Park,10/11/2023 04:00:00,MW,4.8199164
Sherwood Park,10/11/2023 04:05:00,MW,4.7633593
Sherwood Park,10/11/2023 04:10:00,MW,4.6944549
Sherwood Park,10/11/2023 04:15:00,MW,4.698219699999999
Sherwood Park,10/11/2023 04:20:00,MW,4.7643631
Sherwood Park,10/11/2023 04:25:00,MW,4.735640500000001
Sherwood Park,10/11/2023 04:30:00,MW,4.7024801
Sherwood Park,10/11/2023 04:35:00,MW,4.6629574
Sherwood Park,10/11/2023 04:40:00,MW,4.4822302
Sherwood Park,10/11/2023 04:45:00,MW,4.491626
Sherwood Park,10/11/2023 04:50:00,MW,4.5007219
Sherwood Park,10/11/2023 04:55:00,MW,4.7012177
Sherwood Park,10/11/2023 05:00:00,MW,4.816951100000001
Sherwood Park,10/11/2023 05:05:00,MW,4.7148266
Sherwood Park,10/11/2023 05:10:00,MW,4.6025583999999995
Sherwood Park,10/11/2023 05:15:00,MW,4.6072375999999995
Sherwood Park,10/11/2023 05:20:00,MW,4.6081214
Sherwood Park,10/11/2023 05:25:00,MW,4.4956963000000005
Sherwood Park,10/11/2023 05:30:00,MW,4.4371171
Sherwood Park,10/11/2023 05:35:00,MW,4.3202616
Sherwood Park,10/11/2023 05:40:00,MW,4.279055400000001
Sherwood Park,10/11/2023 05:45:00,MW,4.2507281
Sherwood Park,10/11/2023 05:50:00,MW,4.2037719
Sherwood Park,10/11/2023 05:55:00,MW,4.1337677
Sherwood Park,10/11/2023 06:00:00,MW,4.0876853
Sherwood Park,10/11/2023 06:05:00,MW,4.5357146
Sherwood Park,10/11/2023 06:10:00,MW,5.0742125
Sherwood Park,10/11/2023 06:15:00,MW,5.1110816
Sherwood Park,10/11/2023 06:20:00,MW,4.9745384
Sherwood Park,10/11/2023 06:25:00,MW,5.0580201
Sherwood Park,10/11/2023 06:30:00,MW,5.0398253
Sherwood Park,10/11/2023 06:35:00,MW,5.1894891
Sherwood Park,10/11/2023 06:40:00,MW,5.1519327
Sherwood Park,10/11/2023 06:45:00,MW,5.0520198
Sherwood Park,10/11/2023 06:50:00,MW,5.2830827
Sherwood Park,10/11/2023 06:55:00,MW,5.3276726
Sherwood Park,10/11/2023 07:00:00,MW,5.3517166
Sherwood Park,10/11/2023 07:05:00,MW,5.2333166
Sherwood Park,10/11/2023 07:10:00,MW,5.197016700000001
Sherwood Park,10/11/2023 07:15:00,MW,5.2333909
Sherwood Park,10/11/2023 07:20:00,MW,5.782284300000001
Sherwood Park,10/11/2023 07:25:00,MW,5.816626299999999
Sherwood Park,10/11/2023 07:30:00,MW,5.4765935
Sherwood Park,10/11/2023 07:35:00,MW,5.6144903
Sherwood Park,10/11/2023 07:40:00,MW,5.5966916
Sherwood Park,10/11/2023 07:45:00,MW,5.5156382
Sherwood Park,10/11/2023 07:50:00,MW,5.6686353
Sherwood Park,10/11/2023 07:55:00,MW,5.4506946
Sherwood Park,10/11/2023 08:00:00,MW,5.3577639999999995
Sherwood Park,10/11/2023 08:05:00,MW,5.3905747
Sherwood Park,10/11/2023 08:10:00,MW,5.5444795
Sherwood Park,10/11/2023 08:15:00,MW,5.5288319999999995
Sherwood Park,10/11/2023 08:20:00,MW,5.5770929
Sherwood Park,10/11/2023 08:25:00,MW,5.5655389
Sherwood Park,10/11/2023 08:30:00,MW,5.552945
Sherwood Park,10/11/2023 08:35:00,MW,5.4808011
Sherwood Park,10/11/2023 08:40:00,MW,5.274277
Sherwood Park,10/11/2023 08:45:00,MW,5.1822461
Sherwood Park,10/11/2023 08:50:00,MW,5.2760236
Sherwood Park,10/11/2023 08:55:00,MW,5.2077787
Sherwood Park,10/11/2023 09:00:00,MW,5.3768475
Sherwood Park,10/11/2023 09:05:00,MW,5.5036629
Sherwood Park,10/11/2023 09:10:00,MW,5.4356355999999995
Sherwood Park,10/11/2023 09:15:00,MW,5.419354
Sherwood Park,10/11/2023 09:20:00,MW,5.1526115
Sherwood Park,10/11/2023 09:25:00,MW,5.197188199999999
Sherwood Park,10/11/2023 09:30:00,MW,5.0262392
Sherwood Park,10/11/2023 09:35:00,MW,5.2594855
Sherwood Park,10/11/2023 09:40:00,MW,5.2838182
Sherwood Park,10/11/2023 09:45:00,MW,5.316087700000001
Sherwood Park,10/11/2023 09:50:00,MW,5.1734259
Sherwood Park,10/11/2023 09:55:00,MW,5.0918598
Sherwood Park,10/11/2023 10:00:00,MW,5.279387
Sherwood Park,10/11/2023 10:05:00,MW,5.326714
Sherwood Park,10/11/2023 10:10:00,MW,5.316639
Sherwood Park,10/11/2023 10:15:00,MW,5.2672999
Sherwood Park,10/11/2023 10:20:00,MW,5.512665800000001
Sherwood Park,10/11/2023 10:25:00,MW,5.1579337
Sherwood Park,10/11/2023 10:30:00,MW,4.9545688
Sherwood Park,10/11/2023 10:35:00,MW,4.9156337
Sherwood Park,10/11/2023 10:40:00,MW,4.9602294
Sherwood Park,10/11/2023 10:45:00,MW,4.9252193
Sherwood Park,10/11/2023 10:50:00,MW,5.4546817
Sherwood Park,10/11/2023 10:55:00,MW,5.3931717
Sherwood Park,10/11/2023 11:00:00,MW,5.382039300000001
Sherwood Park,10/11/2023 11:05:00,MW,5.6050876
Sherwood Park,10/11/2023 11:10:00,MW,5.4318913
Sherwood Park,10/11/2023 11:15:00,MW,5.4618823
Sherwood Park,10/11/2023 11:20:00,MW,5.5229303000000005
Sherwood Park,10/11/2023 11:25:00,MW,5.581516499999999
Sherwood Park,10/11/2023 11:30:00,MW,5.6274116
Sherwood Park,10/11/2023 11:35:00,MW,5.4610006
Sherwood Park,10/11/2023 11:40:00,MW,5.5058489999999995
Sherwood Park,10/11/2023 11:45:00,MW,5.4664747
Sherwood Park,10/11/2023 11:50:00,MW,5.4949183999999995
Sherwood Park,10/11/2023 11:55:00,MW,5.4269585
Sherwood Park,10/11/2023 12:00:00,MW,5.5993686
Sherwood Park,10/11/2023 12:05:00,MW,5.5870983
Sherwood Park,10/11/2023 12:10:00,MW,5.6779291999999995
Sherwood Park,10/11/2023 12:15:00,MW,5.8109195
Sherwood Park,10/11/2023 12:20:00,MW,5.5487644
Sherwood Park,10/11/2023 12:25:00,MW,5.416087900000001
Sherwood Park,10/11/2023 12:30:00,MW,5.567038999999999
Sherwood Park,10/11/2023 12:35:00,MW,5.5312345
Sherwood Park,10/11/2023 12:40:00,MW,5.501011699999999
Sherwood Park,10/11/2023 12:45:00,MW,5.6376167
Sherwood Park,10/11/2023 12:50:00,MW,5.461038
Sherwood Park,10/11/2023 12:55:00,MW,5.4405453
Sherwood Park,10/11/2023 13:00:00,MW,5.3045113
Sherwood Park,10/11/2023 13:05:00,MW,5.3398159
Sherwood Park,10/11/2023 13:10:00,MW,5.2541828
Sherwood Park,10/11/2023 13:15:00,MW,5.3027438
Sherwood Park,10/11/2023 13:20:00,MW,5.455753
Sherwood Park,10/11/2023 13:25:00,MW,5.5761904
Sherwood Park,10/11/2023 13:30:00,MW,5.5767837
Sherwood Park,10/11/2023 13:35:00,MW,5.5517147
Sherwood Park,10/11/2023 13:40:00,MW,5.6896745
Sherwood Park,10/11/2023 13:45:00,MW,5.7811995
Sherwood Park,10/11/2023 13:50:00,MW,5.7522416
Sherwood Park,10/11/2023 13:55:00,MW,5.7370894
Sherwood Park,10/11/2023 14:00:00,MW,5.7567474999999995
Sherwood Park,10/11/2023 14:05:00,MW,5.7400348
Sherwood Park,10/11/2023 14:10:00,MW,5.4739258
Sherwood Park,10/11/2023 14:15:00,MW,5.4691078
Sherwood Park,10/11/2023 14:20:00,MW,5.5959063
Sherwood Park,10/11/2023 14:25:00,MW,5.660306500000001
Sherwood Park,10/11/2023 14:30:00,MW,5.538513699999999
Sherwood Park,10/11/2023 14:35:00,MW,5.273509499999999
Sherwood Park,10/11/2023 14:40:00,MW,5.2350072999999995
Sherwood Park,10/11/2023 14:45:00,MW,5.3357343
Sherwood Park,10/11/2023 14:50:00,MW,5.3607939
Sherwood Park,10/11/2023 14:55:00,MW,5.348677
Sherwood Park,10/11/2023 15:00:00,MW,5.4864061
Sherwood Park,10/11/2023 15:05:00,MW,5.4706204
Sherwood Park,10/11/2023 15:10:00,MW,5.222826400000001
Sherwood Park,10/11/2023 15:15:00,MW,5.6352287
Sherwood Park,10/11/2023 15:20:00,MW,5.663494099999999
Sherwood Park,10/11/2023 15:25:00,MW,5.6489985
Sherwood Park,10/11/2023 15:30:00,MW,5.4825506
Sherwood Park,10/11/2023 15:35:00,MW,5.4617854
Sherwood Park,10/11/2023 15:40:00,MW,5.2761057000000005
Sherwood Park,10/11/2023 15:45:00,MW,5.1156866
Sherwood Park,10/11/2023 15:50:00,MW,5.2180035
Sherwood Park,10/11/2023 15:55:00,MW,5.2391006
Sherwood Park,10/11/2023 16:00:00,MW,5.3666990000000006
Sherwood Park,10/11/2023 16:05:00,MW,5.3262518
Sherwood Park,10/11/2023 16:10:00,MW,5.618014499999999
Sherwood Park,10/11/2023 16:15:00,MW,5.4726985
Sherwood Park,10/11/2023 16:20:00,MW,5.288938399999999
Sherwood Park,10/11/2023 16:25:00,MW,5.3503747
Sherwood Park,10/11/2023 16:30:00,MW,5.4060292
Sherwood Park,10/11/2023 16:35:00,MW,5.3141494
Sherwood Park,10/11/2023 16:40:00,MW,5.227302399999999
Sherwood Park,10/11/2023 16:45:00,MW,5.3354876
Sherwood Park,10/11/2023 16:50:00,MW,5.3107562
Sherwood Park,10/11/2023 16:55:00,MW,5.1470423
Sherwood Park,10/11/2023 17:00:00,MW,5.0806787
Sherwood Park,10/11/2023 17:05:00,MW,5.0828007
Sherwood Park,10/11/2023 17:10:00,MW,5.0892662
Sherwood Park,10/11/2023 17:15:00,MW,4.8402284
Sherwood Park,10/11/2023 17:20:00,MW,4.689138
Sherwood Park,10/11/2023 17:25:00,MW,4.6340082
Sherwood Park,10/11/2023 17:30:00,MW,4.6361229999999995
Sherwood Park,10/11/2023 17:35:00,MW,4.6254907
Sherwood Park,10/11/2023 17:40:00,MW,4.4263997
Sherwood Park,10/11/2023 17:45:00,MW,4.3987009
Sherwood Park,10/11/2023 17:50:00,MW,4.4549756
Sherwood Park,10/11/2023 17:55:00,MW,4.5465038
Sherwood Park,10/11/2023 18:00:00,MW,4.6150055000000005
Sherwood Park,10/11/2023 18:05:00,MW,4.712616000000001
Sherwood Park,10/11/2023 18:10:00,MW,4.8419726
Sherwood Park,10/11/2023 18:15:00,MW,5.253834
Sherwood Park,10/11/2023 18:20:00,MW,5.3711202
Sherwood Park,10/11/2023 18:25:00,MW,5.2995196
Sherwood Park,10/11/2023 18:30:00,MW,5.4618316
Sherwood Park,10/11/2023 18:35:00,MW,5.5542946
Sherwood Park,10/11/2023 18:40:00,MW,5.2260475
Sherwood Park,10/11/2023 18:45:00,MW,4.8579034
Sherwood Park,10/11/2023 18:50:00,MW,5.1495488
Sherwood Park,10/11/2023 18:55:00,MW,4.9691426
Sherwood Park,10/11/2023 19:00:00,MW,4.9503276
Sherwood Park,10/11/2023 19:05:00,MW,5.004644900000001
Sherwood Park,10/11/2023 19:10:00,MW,5.09799
Sherwood Park,10/11/2023 19:15:00,MW,5.0685113
Sherwood Park,10/11/2023 19:20:00,MW,4.9440437
Sherwood Park,10/11/2023 19:25:00,MW,5.0526824
Sherwood Park,10/11/2023 19:30:00,MW,5.189114
Sherwood Park,10/11/2023 19:35:00,MW,5.154463
Sherwood Park,10/11/2023 19:40:00,MW,5.2208668
Sherwood Park,10/11/2023 19:45:00,MW,5.313561
Sherwood Park,10/11/2023 19:50:00,MW,5.354954
Sherwood Park,10/11/2023 19:55:00,MW,5.3504442999999995
Sherwood Park,10/11/2023 20:00:00,MW,5.2302745
Sherwood Park,10/11/2023 20:05:00,MW,5.0307183
Sherwood Park,10/11/2023 20:10:00,MW,4.8374319
Sherwood Park,10/11/2023 20:15:00,MW,5.0362077
Sherwood Park,10/11/2023 20:20:00,MW,5.0914524
Sherwood Park,10/11/2023 20:25:00,MW,5.151851199999999
Sherwood Park,10/11/2023 20:30:00,MW,5.4009126
Sherwood Park,10/11/2023 20:35:00,MW,5.4058548
Sherwood Park,10/11/2023 20:40:00,MW,5.5123307
Sherwood Park,10/11/2023 20:45:00,MW,5.2626441
Sherwood Park,10/11/2023 20:50:00,MW,5.207970899999999
Sherwood Park,10/11/2023 20:55:00,MW,5.2236163
Sherwood Park,10/11/2023 21:00:00,MW,5.2749524
Sherwood Park,10/11/2023 21:05:00,MW,5.226872999999999
Sherwood Park,10/11/2023 21:10:00,MW,5.3753879
Sherwood Park,10/11/2023 21:15:00,MW,5.2447638
Sherwood Park,10/11/2023 21:20:00,MW,5.2307296
Sherwood Park,10/11/2023 21:25:00,MW,5.1582744
Sherwood Park,10/11/2023 21:30:00,MW,5.246246599999999
Sherwood Park,10/11/2023 21:35:00,MW,5.3431067
Sherwood Park,10/11/2023 21:40:00,MW,5.3744689999999995
Sherwood Park,10/11/2023 21:45:00,MW,5.2223673
Sherwood Park,10/11/2023 21:50:00,MW,5.2520318
Sherwood Park,10/11/2023 21:55:00,MW,5.00898
Sherwood Park,10/11/2023 22:00:00,MW,5.006845
Sherwood Park,10/11/2023 22:05:00,MW,5.0816495
Sherwood Park,10/11/2023 22:10:00,MW,5.1406183
Sherwood Park,10/11/2023 22:15:00,MW,5.19431
Sherwood Park,10/11/2023 22:20:00,MW,5.1022763
Sherwood Park,10/11/2023 22:25:00,MW,5.0274488
Sherwood Park,10/11/2023 22:30:00,MW,5.0624824
Sherwood Park,10/11/2023 22:35:00,MW,5.168912300000001
Sherwood Park,10/11/2023 22:40:00,MW,5.2597758
Sherwood Park,10/11/2023 22:45:00,MW,5.1041766
Sherwood Park,10/11/2023 22:50:00,MW,5.0827076
Sherwood Park,10/11/2023 22:55:00,MW,5.16505
Sherwood Park,10/11/2023 23:00:00,MW,5.0199134
Sherwood Park,10/11/2023 23:05:00,MW,4.9360856
Sherwood Park,10/11/2023 23:10:00,MW,4.6879396
Sherwood Park,10/11/2023 23:15:00,MW,4.6782446
Sherwood Park,10/11/2023 23:20:00,MW,4.647584
Sherwood Park,10/11/2023 23:25:00,MW,4.7063713
Sherwood Park,10/11/2023 23:30:00,MW,4.8651365
Sherwood Park,10/11/2023 23:35:00,MW,4.7006152
Sherwood Park,10/11/2023 23:40:00,MW,4.717221
Sherwood Park,10/11/2023 23:45:00,MW,4.6724975
Sherwood Park,10/11/2023 23:50:00,MW,4.7096507
Sherwood Park,10/11/2023 23:55:00,MW,4.7216048
